Time,TemperatureF,DewpointF,PressureIn,WindDirection,WindDirectionDegrees,WindSpeedMPH,WindSpeedGustMPH,Humidity,HourlyPrecipIn,Conditions,Clouds,dailyrainin,SoftwareType,DateUTC
2013-04-03 00:00:00,74.2,68.0,30.13,NE,45,5.4,10.0,80,0.00,,,0.00,Rainwise IP-100,2013-04-03 04:00:00,
2013-04-03 00:01:00,74.2,68.0,30.12,NE,45,8.4,10.0,80,0.00,,,0.00,Rainwise IP-100,2013-04-03 04:01:00,
2013-04-03 00:06:00,74.2,68.5,30.13,ENE,67,5.6,8.4,81,0.00,,,0.00,Rainwise IP-100,2013-04-03 04:06:00,
2013-04-03 00:11:00,74.2,68.5,30.12,East,90,7.5,9.1,81,0.00,,,0.00,Rainwise IP-100,2013-04-03 04:11:00,
2013-04-03 00:17:00,74.2,68.5,30.12,ENE,67,5.4,10.0,81,0.00,,,0.00,Rainwise IP-100,2013-04-03 04:17:00,
2013-04-03 00:21:00,74.1,68.0,30.12,East,90,6.5,10.3,81,0.00,,,0.00,Rainwise IP-100,2013-04-03 04:21:00,
2013-04-03 00:26:00,74.1,68.0,30.13,ENE,67,4.0,9.3,81,0.00,,,0.00,Rainwise IP-100,2013-04-03 04:26:00,
2013-04-03 00:31:00,74.1,68.0,30.13,NNE,22,7.5,8.4,81,0.00,,,0.00,Rainwise IP-100,2013-04-03 04:31:00,
2013-04-03 00:36:00,74.1,68.0,30.12,ENE,67,7.0,10.0,81,0.00,,,0.00,Rainwise IP-100,2013-04-03 04:36:00,
2013-04-03 00:41:00,74.0,68.0,30.13,East,90,1.6,9.1,81,0.00,,,0.00,Rainwise IP-100,2013-04-03 04:41:00,
2013-04-03 00:47:00,74.0,67.5,30.13,ENE,67,3.3,8.4,80,0.00,,,0.00,Rainwise IP-100,2013-04-03 04:47:00,
2013-04-03 00:52:00,74.0,67.5,30.12,ENE,67,4.2,8.6,80,0.00,,,0.00,Rainwise IP-100,2013-04-03 04:52:00,
2013-04-03 00:57:00,74.1,67.0,30.13,ENE,67,5.8,7.9,79,0.00,,,0.00,Rainwise IP-100,2013-04-03 04:57:00,
2013-04-03 01:02:00,74.2,68.0,30.12,ENE,67,3.0,6.5,80,0.00,,,0.00,Rainwise IP-100,2013-04-03 05:02:00,
2013-04-03 01:07:00,74.1,67.5,30.13,ENE,67,1.2,7.0,80,0.00,,,0.00,Rainwise IP-100,2013-04-03 05:07:00,
2013-04-03 01:12:00,74.0,67.5,30.12,ENE,67,2.8,7.7,80,0.00,,,0.00,Rainwise IP-100,2013-04-03 05:12:00,
2013-04-03 01:17:00,74.0,67.5,30.12,East,90,2.3,6.8,80,0.00,,,0.00,Rainwise IP-100,2013-04-03 05:17:00,
2013-04-03 01:23:00,74.0,67.5,30.12,East,90,0.0,6.1,80,0.00,,,0.00,Rainwise IP-100,2013-04-03 05:23:00,
2013-04-03 01:28:00,74.0,67.5,30.12,ESE,112,3.0,5.1,80,0.00,,,0.00,Rainwise IP-100,2013-04-03 05:28:00,
2013-04-03 01:33:00,73.9,67.5,30.12,East,90,5.1,5.6,80,0.00,,,0.00,Rainwise IP-100,2013-04-03 05:33:00,
2013-04-03 01:38:00,73.9,67.5,30.12,East,90,5.1,7.5,80,0.00,,,0.00,Rainwise IP-100,2013-04-03 05:38:00,
2013-04-03 01:43:00,73.9,67.5,30.12,ENE,67,3.0,7.5,80,0.00,,,0.00,Rainwise IP-100,2013-04-03 05:43:00,
2013-04-03 01:48:00,73.9,67.5,30.12,ENE,67,1.6,6.1,80,0.00,,,0.00,Rainwise IP-100,2013-04-03 05:48:00,
2013-04-03 01:53:00,73.8,67.0,30.11,ENE,67,2.8,6.1,80,0.00,,,0.00,Rainwise IP-100,2013-04-03 05:53:00,
2013-04-03 01:59:00,73.7,67.0,30.11,ENE,67,6.5,6.5,80,0.00,,,0.00,Rainwise IP-100,2013-04-03 05:59:00,
2013-04-03 02:04:00,73.8,67.0,30.11,ENE,67,3.0,7.7,80,0.00,,,0.00,Rainwise IP-100,2013-04-03 06:04:00,
2013-04-03 02:09:00,73.9,67.5,30.11,ENE,67,3.0,4.9,80,0.00,,,0.00,Rainwise IP-100,2013-04-03 06:09:00,
2013-04-03 02:14:00,73.7,66.7,30.11,ENE,67,2.3,4.7,79,0.00,,,0.00,Rainwise IP-100,2013-04-03 06:14:00,
2013-04-03 02:19:00,73.8,66.7,30.11,East,90,1.6,5.6,79,0.00,,,0.00,Rainwise IP-100,2013-04-03 06:19:00,
2013-04-03 02:24:00,73.9,67.5,30.11,ENE,67,2.3,6.5,80,0.00,,,0.00,Rainwise IP-100,2013-04-03 06:24:00,
2013-04-03 02:29:00,73.8,67.0,30.11,NNE,22,1.2,5.8,80,0.00,,,0.00,Rainwise IP-100,2013-04-03 06:29:00,
2013-04-03 02:34:00,73.6,67.0,30.11,ENE,67,2.8,7.0,80,0.00,,,0.00,Rainwise IP-100,2013-04-03 06:34:00,
2013-04-03 02:40:00,73.6,67.0,30.11,ENE,67,2.6,4.9,80,0.00,,,0.00,Rainwise IP-100,2013-04-03 06:40:00,
2013-04-03 02:45:00,73.7,67.0,30.11,ENE,67,2.1,4.0,80,0.00,,,0.00,Rainwise IP-100,2013-04-03 06:45:00,
2013-04-03 02:50:00,73.7,66.7,30.11,ENE,67,1.6,7.7,79,0.00,,,0.00,Rainwise IP-100,2013-04-03 06:50:00,
2013-04-03 02:55:00,73.7,66.7,30.11,ENE,67,1.6,4.9,79,0.00,,,0.00,Rainwise IP-100,2013-04-03 06:55:00,
2013-04-03 03:00:00,73.7,66.7,30.11,ESE,112,2.3,7.5,78,0.00,,,0.00,Rainwise IP-100,2013-04-03 07:00:00,
2013-04-03 03:05:00,73.8,66.3,30.10,ESE,112,2.3,6.1,77,0.00,,,0.00,Rainwise IP-100,2013-04-03 07:05:00,
2013-04-03 03:10:00,73.9,66.3,30.10,SSE,157,3.3,5.1,77,0.00,,,0.00,Rainwise IP-100,2013-04-03 07:10:00,
2013-04-03 03:16:00,74.0,66.7,30.11,East,90,3.0,4.7,78,0.00,,,0.00,Rainwise IP-100,2013-04-03 07:16:00,
2013-04-03 03:21:00,74.0,66.7,30.11,ESE,112,3.5,5.8,78,0.00,,,0.00,Rainwise IP-100,2013-04-03 07:21:00,
2013-04-03 03:26:00,74.0,66.7,30.11,East,90,0.0,6.3,78,0.00,,,0.00,Rainwise IP-100,2013-04-03 07:26:00,
2013-04-03 03:31:00,73.9,67.0,30.10,ESE,112,2.8,4.0,79,0.00,,,0.00,Rainwise IP-100,2013-04-03 07:31:00,
2013-04-03 03:36:00,73.8,67.0,30.09,SE,135,1.2,5.8,80,0.00,,,0.00,Rainwise IP-100,2013-04-03 07:36:00,
2013-04-03 03:42:00,73.7,67.0,30.09,ESE,112,1.2,5.1,80,0.00,,,0.00,Rainwise IP-100,2013-04-03 07:42:00,
2013-04-03 03:47:00,73.7,67.0,30.09,SE,135,1.9,9.1,80,0.00,,,0.00,Rainwise IP-100,2013-04-03 07:47:00,
2013-04-03 03:52:00,73.8,67.0,30.09,East,90,4.7,5.1,80,0.00,,,0.00,Rainwise IP-100,2013-04-03 07:52:00,
2013-04-03 03:57:00,73.7,66.7,30.09,SSE,157,2.1,9.8,79,0.00,,,0.00,Rainwise IP-100,2013-04-03 07:57:00,
2013-04-03 04:02:00,73.6,66.7,30.09,ESE,112,4.0,7.0,79,0.00,,,0.00,Rainwise IP-100,2013-04-03 08:02:00,
2013-04-03 04:07:00,73.7,66.7,30.09,SSE,157,2.6,9.1,79,0.00,,,0.00,Rainwise IP-100,2013-04-03 08:07:00,
2013-04-03 04:12:00,73.7,66.7,30.09,ESE,112,3.3,6.5,79,0.00,,,0.00,Rainwise IP-100,2013-04-03 08:12:00,
2013-04-03 04:17:00,73.7,66.7,30.08,SE,135,5.4,8.2,79,0.00,,,0.00,Rainwise IP-100,2013-04-03 08:17:00,
2013-04-03 04:23:00,73.7,66.7,30.08,ESE,112,2.6,9.1,79,0.00,,,0.00,Rainwise IP-100,2013-04-03 08:23:00,
2013-04-03 04:28:00,73.8,66.7,30.08,SE,135,3.5,7.0,79,0.00,,,0.00,Rainwise IP-100,2013-04-03 08:28:00,
2013-04-03 04:33:00,73.8,66.7,30.08,SSE,157,3.3,6.8,79,0.00,,,0.00,Rainwise IP-100,2013-04-03 08:33:00,
2013-04-03 04:38:00,73.7,66.7,30.08,South,180,5.6,8.6,79,0.00,,,0.00,Rainwise IP-100,2013-04-03 08:38:00,
2013-04-03 04:43:00,73.9,66.7,30.08,SSE,157,3.5,7.5,78,0.00,,,0.00,Rainwise IP-100,2013-04-03 08:43:00,
2013-04-03 04:48:00,74.0,66.7,30.08,SSE,157,2.1,8.6,78,0.00,,,0.00,Rainwise IP-100,2013-04-03 08:48:00,
2013-04-03 04:53:00,73.9,66.7,30.08,ESE,112,4.4,7.2,78,0.00,,,0.00,Rainwise IP-100,2013-04-03 08:53:00,
2013-04-03 04:59:00,74.0,66.3,30.08,ESE,112,2.1,7.5,77,0.00,,,0.00,Rainwise IP-100,2013-04-03 08:59:00,
2013-04-03 05:04:00,74.1,66.3,30.08,SSE,157,3.5,8.9,77,0.00,,,0.00,Rainwise IP-100,2013-04-03 09:04:00,
2013-04-03 05:09:00,74.1,66.3,30.08,SSE,157,4.4,9.6,77,0.00,,,0.00,Rainwise IP-100,2013-04-03 09:09:00,
2013-04-03 05:14:00,74.2,66.7,30.08,ESE,112,6.5,8.4,77,0.00,,,0.00,Rainwise IP-100,2013-04-03 09:14:00,
2013-04-03 05:19:00,74.1,66.7,30.08,SSE,157,5.4,9.6,78,0.00,,,0.00,Rainwise IP-100,2013-04-03 09:19:00,
2013-04-03 05:24:00,74.1,66.7,30.08,SE,135,2.8,11.4,78,0.00,,,0.00,Rainwise IP-100,2013-04-03 09:24:00,
2013-04-03 05:29:00,74.1,66.3,30.09,ESE,112,7.5,8.9,77,0.00,,,0.00,Rainwise IP-100,2013-04-03 09:29:00,
2013-04-03 05:34:00,74.1,66.3,30.09,SE,135,6.5,9.8,77,0.00,,,0.00,Rainwise IP-100,2013-04-03 09:34:00,
2013-04-03 05:39:00,74.1,66.3,30.08,ESE,112,0.0,8.9,77,0.00,,,0.00,Rainwise IP-100,2013-04-03 09:39:00,
2013-04-03 05:45:00,74.1,66.7,30.09,ESE,112,4.7,9.6,78,0.00,,,0.00,Rainwise IP-100,2013-04-03 09:45:00,
2013-04-03 05:50:00,74.2,67.0,30.08,SSW,202,2.8,10.3,78,0.00,,,0.00,Rainwise IP-100,2013-04-03 09:50:00,
2013-04-03 05:55:00,74.1,67.0,30.08,ESE,112,3.5,9.3,79,0.00,,,0.00,Rainwise IP-100,2013-04-03 09:55:00,
2013-04-03 06:00:00,74.0,67.0,30.08,ESE,112,4.7,7.9,79,0.00,,,0.00,Rainwise IP-100,2013-04-03 10:00:00,
2013-04-03 06:05:00,74.1,67.0,30.08,SSE,157,2.8,8.4,79,0.00,,,0.00,Rainwise IP-100,2013-04-03 10:05:00,
2013-04-03 06:10:00,74.1,67.0,30.09,ESE,112,7.2,10.3,79,0.00,,,0.00,Rainwise IP-100,2013-04-03 10:10:00,
2013-04-03 06:15:00,74.1,67.0,30.09,ESE,112,6.5,11.2,79,0.00,,,0.00,Rainwise IP-100,2013-04-03 10:15:00,
2013-04-03 06:20:00,74.0,67.0,30.09,SSE,157,6.5,10.0,79,0.00,,,0.00,Rainwise IP-100,2013-04-03 10:20:00,
2013-04-03 06:25:00,74.1,67.0,30.09,SSE,157,7.9,11.4,79,0.00,,,0.00,Rainwise IP-100,2013-04-03 10:25:00,
2013-04-03 06:31:00,74.1,66.7,30.09,ESE,112,6.8,13.8,78,0.00,,,0.00,Rainwise IP-100,2013-04-03 10:31:00,
2013-04-03 06:36:00,74.1,66.7,30.08,ESE,112,7.0,14.2,78,0.00,,,0.00,Rainwise IP-100,2013-04-03 10:36:00,
2013-04-03 06:41:00,74.3,67.5,30.08,ESE,112,8.2,13.8,79,0.00,,,0.00,Rainwise IP-100,2013-04-03 10:41:00,
2013-04-03 06:46:00,74.3,67.5,30.09,SSE,157,10.7,13.5,79,0.00,,,0.00,Rainwise IP-100,2013-04-03 10:46:00,
2013-04-03 06:51:00,74.3,67.5,30.09,SE,135,5.1,13.3,79,0.00,,,0.00,Rainwise IP-100,2013-04-03 10:51:00,
2013-04-03 06:56:00,74.2,67.5,30.09,South,180,5.1,12.4,79,0.00,,,0.00,Rainwise IP-100,2013-04-03 10:56:00,
2013-04-03 07:02:00,74.2,67.5,30.10,SE,135,9.1,12.8,79,0.00,,,0.00,Rainwise IP-100,2013-04-03 11:02:00,
2013-04-03 07:07:00,74.1,66.7,30.10,ESE,112,10.0,11.7,78,0.00,,,0.00,Rainwise IP-100,2013-04-03 11:07:00,
2013-04-03 07:12:00,74.1,66.7,30.10,SSE,157,5.8,12.6,78,0.00,,,0.00,Rainwise IP-100,2013-04-03 11:12:00,
2013-04-03 07:17:00,74.2,66.7,30.10,SE,135,6.1,14.7,77,0.00,,,0.00,Rainwise IP-100,2013-04-03 11:17:00,
2013-04-03 07:22:00,74.2,67.0,30.10,SSE,157,7.0,12.8,78,0.00,,,0.00,Rainwise IP-100,2013-04-03 11:22:00,
2013-04-03 07:27:00,74.2,67.0,30.09,SE,135,7.0,14.5,78,0.00,,,0.00,Rainwise IP-100,2013-04-03 11:27:00,
2013-04-03 07:32:00,74.2,67.0,30.09,SE,135,5.8,15.6,78,0.00,,,0.00,Rainwise IP-100,2013-04-03 11:32:00,
2013-04-03 07:38:00,74.4,67.5,30.09,ESE,112,8.6,12.6,79,0.00,,,0.00,Rainwise IP-100,2013-04-03 11:38:00,
2013-04-03 07:43:00,74.4,68.0,30.09,SSE,157,13.1,14.5,80,0.00,,,0.00,Rainwise IP-100,2013-04-03 11:43:00,
2013-04-03 07:48:00,74.4,68.0,30.10,ESE,112,6.1,13.1,80,0.00,,,0.00,Rainwise IP-100,2013-04-03 11:48:00,
2013-04-03 07:53:00,74.5,68.5,30.10,ESE,112,8.4,9.8,80,0.00,,,0.00,Rainwise IP-100,2013-04-03 11:53:00,
2013-04-03 07:58:00,74.6,68.0,30.10,SSE,157,9.1,13.8,79,0.00,,,0.00,Rainwise IP-100,2013-04-03 11:58:00,
2013-04-03 08:03:00,74.7,68.0,30.10,ESE,112,7.9,15.6,79,0.00,,,0.00,Rainwise IP-100,2013-04-03 12:03:00,
2013-04-03 08:08:00,74.7,67.5,30.10,ESE,112,5.8,13.1,78,0.00,,,0.00,Rainwise IP-100,2013-04-03 12:08:00,
2013-04-03 08:13:00,74.8,67.0,30.10,SSE,157,7.9,13.1,77,0.00,,,0.00,Rainwise IP-100,2013-04-03 12:13:00,
2013-04-03 08:19:00,75.1,67.0,30.10,SSE,157,5.8,13.8,76,0.00,,,0.00,Rainwise IP-100,2013-04-03 12:19:00,
2013-04-03 08:24:00,75.3,67.5,30.10,SE,135,11.0,14.0,76,0.00,,,0.00,Rainwise IP-100,2013-04-03 12:24:00,
2013-04-03 08:29:00,75.4,67.5,30.11,ESE,112,6.5,11.9,76,0.00,,,0.00,Rainwise IP-100,2013-04-03 12:29:00,
2013-04-03 08:34:00,75.4,67.5,30.11,ESE,112,2.3,11.9,76,0.00,,,0.00,Rainwise IP-100,2013-04-03 12:34:00,
2013-04-03 08:39:00,75.5,67.0,30.10,SSE,157,4.9,13.3,75,0.00,,,0.00,Rainwise IP-100,2013-04-03 12:39:00,
2013-04-03 08:44:00,75.6,67.0,30.10,ESE,112,11.7,11.7,75,0.00,,,0.00,Rainwise IP-100,2013-04-03 12:44:00,
2013-04-03 08:49:00,75.8,67.5,30.10,ESE,112,7.0,12.8,76,0.00,,,0.00,Rainwise IP-100,2013-04-03 12:49:00,
2013-04-03 08:55:00,75.8,67.5,30.11,SE,135,6.1,12.1,76,0.00,,,0.00,Rainwise IP-100,2013-04-03 12:55:00,
2013-04-03 09:00:00,75.7,67.5,30.12,SSE,157,7.2,11.7,76,0.00,,,0.00,Rainwise IP-100,2013-04-03 13:00:00,
2013-04-03 09:05:00,75.7,68.0,30.11,SSE,157,7.0,12.8,77,0.00,,,0.00,Rainwise IP-100,2013-04-03 13:05:00,
2013-04-03 09:10:00,75.9,67.5,30.11,SSE,157,5.8,11.9,76,0.00,,,0.00,Rainwise IP-100,2013-04-03 13:10:00,
2013-04-03 09:15:00,76.2,67.5,30.11,ESE,112,7.5,14.9,75,0.00,,,0.00,Rainwise IP-100,2013-04-03 13:15:00,
2013-04-03 09:20:00,76.2,67.5,30.11,SE,135,5.1,11.7,75,0.00,,,0.00,Rainwise IP-100,2013-04-03 13:20:00,
2013-04-03 09:25:00,76.2,67.5,30.11,SSE,157,3.7,12.1,75,0.00,,,0.00,Rainwise IP-100,2013-04-03 13:25:00,
2013-04-03 09:31:00,76.3,67.5,30.11,SSE,157,10.3,12.1,75,0.00,,,0.00,Rainwise IP-100,2013-04-03 13:31:00,
2013-04-03 09:36:00,76.3,67.5,30.11,SSE,157,2.6,14.2,75,0.00,,,0.00,Rainwise IP-100,2013-04-03 13:36:00,
2013-04-03 09:41:00,76.3,67.5,30.12,SSE,157,4.7,13.5,75,0.00,,,0.00,Rainwise IP-100,2013-04-03 13:41:00,
2013-04-03 09:46:00,76.3,67.5,30.12,ESE,112,10.5,14.2,75,0.00,,,0.00,Rainwise IP-100,2013-04-03 13:46:00,
2013-04-03 09:51:00,76.4,68.5,30.12,ESE,112,7.9,12.4,76,0.00,,,0.00,Rainwise IP-100,2013-04-03 13:51:00,
2013-04-03 09:57:00,76.6,68.0,30.12,SSE,157,8.2,10.5,75,0.00,,,0.00,Rainwise IP-100,2013-04-03 13:57:00,
2013-04-03 10:02:00,76.6,68.0,30.12,South,180,2.6,11.9,75,0.00,,,0.00,Rainwise IP-100,2013-04-03 14:02:00,
2013-04-03 10:07:00,76.5,68.5,30.12,ESE,112,7.5,12.6,76,0.00,,,0.00,Rainwise IP-100,2013-04-03 14:07:00,
2013-04-03 10:12:00,76.4,68.5,30.12,SSE,157,4.7,13.3,76,0.00,,,0.00,Rainwise IP-100,2013-04-03 14:12:00,
2013-04-03 10:17:00,76.3,68.5,30.12,SSE,157,4.9,12.4,77,0.00,,,0.00,Rainwise IP-100,2013-04-03 14:17:00,
2013-04-03 10:22:00,76.3,68.5,30.13,SSE,157,4.7,11.7,77,0.00,,,0.00,Rainwise IP-100,2013-04-03 14:22:00,
2013-04-03 10:27:00,76.5,68.5,30.13,SSE,157,10.7,11.2,76,0.00,,,0.00,Rainwise IP-100,2013-04-03 14:27:00,
2013-04-03 10:33:00,76.7,68.5,30.13,SE,135,4.2,11.4,75,0.00,,,0.00,Rainwise IP-100,2013-04-03 14:33:00,
2013-04-03 10:38:00,76.8,68.0,30.13,ESE,112,1.9,11.2,74,0.00,,,0.00,Rainwise IP-100,2013-04-03 14:38:00,
2013-04-03 10:43:00,77.1,68.5,30.13,SE,135,8.2,12.4,74,0.00,,,0.00,Rainwise IP-100,2013-04-03 14:43:00,
2013-04-03 10:48:00,77.4,68.0,30.13,SE,135,9.1,11.7,73,0.00,,,0.00,Rainwise IP-100,2013-04-03 14:48:00,
2013-04-03 10:53:00,77.5,68.5,30.13,SSE,157,7.2,11.4,73,0.00,,,0.00,Rainwise IP-100,2013-04-03 14:53:00,
2013-04-03 10:58:00,77.4,68.0,30.12,SE,135,5.1,12.8,73,0.00,,,0.00,Rainwise IP-100,2013-04-03 14:58:00,
2013-04-03 11:03:00,77.2,68.5,30.12,ESE,112,10.5,12.8,74,0.00,,,0.00,Rainwise IP-100,2013-04-03 15:03:00,
2013-04-03 11:08:00,77.2,68.5,30.12,SSE,157,3.7,13.3,74,0.00,,,0.00,Rainwise IP-100,2013-04-03 15:08:00,
2013-04-03 11:14:00,77.2,68.5,30.12,SE,135,7.5,16.1,74,0.00,,,0.00,Rainwise IP-100,2013-04-03 15:14:00,
2013-04-03 11:19:00,77.4,68.5,30.12,ESE,112,4.0,12.8,74,0.00,,,0.00,Rainwise IP-100,2013-04-03 15:19:00,
2013-04-03 11:24:00,77.8,68.5,30.11,SSE,157,4.7,14.2,73,0.00,,,0.00,Rainwise IP-100,2013-04-03 15:24:00,
2013-04-03 11:29:00,77.9,68.5,30.12,ESE,112,4.4,12.4,72,0.00,,,0.00,Rainwise IP-100,2013-04-03 15:29:00,
2013-04-03 11:34:00,78.0,68.5,30.11,ESE,112,12.8,14.0,72,0.00,,,0.00,Rainwise IP-100,2013-04-03 15:34:00,
2013-04-03 11:39:00,78.1,69.0,30.11,SE,135,9.8,13.8,73,0.00,,,0.00,Rainwise IP-100,2013-04-03 15:39:00,
2013-04-03 11:44:00,77.9,69.0,30.10,ESE,112,6.3,15.6,73,0.00,,,0.00,Rainwise IP-100,2013-04-03 15:44:00,
2013-04-03 11:49:00,77.9,69.3,30.10,SSE,157,5.8,14.0,74,0.00,,,0.00,Rainwise IP-100,2013-04-03 15:49:00,
2013-04-03 11:55:00,77.9,69.0,30.10,SSE,157,2.3,17.0,73,0.00,,,0.00,Rainwise IP-100,2013-04-03 15:55:00,
2013-04-03 12:00:00,78.0,69.0,30.10,East,90,4.4,17.0,73,0.00,,,0.00,Rainwise IP-100,2013-04-03 16:00:00,
2013-04-03 12:05:00,78.4,69.3,30.10,ESE,112,3.7,11.2,73,0.00,,,0.00,Rainwise IP-100,2013-04-03 16:05:00,
2013-04-03 12:10:00,78.7,69.3,30.10,ESE,112,3.5,11.2,73,0.00,,,0.00,Rainwise IP-100,2013-04-03 16:10:00,
2013-04-03 12:15:00,79.0,69.3,30.10,SSE,157,3.5,10.0,72,0.00,,,0.00,Rainwise IP-100,2013-04-03 16:15:00,
2013-04-03 12:20:00,79.1,69.3,30.10,ENE,67,7.2,10.3,72,0.00,,,0.00,Rainwise IP-100,2013-04-03 16:20:00,
2013-04-03 12:25:00,79.3,69.3,30.10,SE,135,8.9,11.0,71,0.00,,,0.00,Rainwise IP-100,2013-04-03 16:25:00,
2013-04-03 12:31:00,79.2,69.3,30.10,SSW,202,2.1,13.3,71,0.00,,,0.00,Rainwise IP-100,2013-04-03 16:31:00,
2013-04-03 12:36:00,78.8,69.0,30.10,SSE,157,6.3,14.9,72,0.00,,,0.00,Rainwise IP-100,2013-04-03 16:36:00,
2013-04-03 12:41:00,78.7,69.0,30.09,SE,135,17.0,17.0,72,0.00,,,0.00,Rainwise IP-100,2013-04-03 16:41:00,
2013-04-03 12:46:00,78.6,69.0,30.09,South,180,4.4,17.0,72,0.00,,,0.00,Rainwise IP-100,2013-04-03 16:46:00,
2013-04-03 12:51:00,78.4,69.0,30.09,SSE,157,5.6,16.3,72,0.00,,,0.00,Rainwise IP-100,2013-04-03 16:51:00,
2013-04-03 12:56:00,78.6,69.3,30.09,SSE,157,1.2,11.7,73,0.00,,,0.00,Rainwise IP-100,2013-04-03 16:56:00,
2013-04-03 13:01:00,78.9,69.3,30.08,WSW,247,8.6,12.1,72,0.00,,,0.00,Rainwise IP-100,2013-04-03 17:01:00,
2013-04-03 13:06:00,78.9,69.3,30.09,SSE,157,8.9,18.7,72,0.00,,,0.00,Rainwise IP-100,2013-04-03 17:06:00,
2013-04-03 13:12:00,78.9,69.3,30.09,South,180,5.4,14.5,72,0.00,,,0.00,Rainwise IP-100,2013-04-03 17:12:00,
2013-04-03 13:17:00,78.6,68.5,30.09,ESE,112,5.6,14.7,71,0.00,,,0.00,Rainwise IP-100,2013-04-03 17:17:00,
2013-04-03 13:22:00,78.6,68.5,30.09,SSE,157,7.0,11.9,71,0.00,,,0.00,Rainwise IP-100,2013-04-03 17:22:00,
2013-04-03 13:27:00,79.2,69.3,30.09,SE,135,5.1,8.2,71,0.00,,,0.00,Rainwise IP-100,2013-04-03 17:27:00,
2013-04-03 13:32:00,79.4,69.0,30.09,SW,225,4.7,9.6,70,0.00,,,0.00,Rainwise IP-100,2013-04-03 17:32:00,
2013-04-03 13:37:00,79.5,69.0,30.08,ESE,112,2.1,12.8,70,0.00,,,0.00,Rainwise IP-100,2013-04-03 17:37:00,
2013-04-03 13:42:00,79.8,69.0,30.09,SSE,157,2.8,12.1,70,0.00,,,0.00,Rainwise IP-100,2013-04-03 17:42:00,
2013-04-03 13:47:00,79.9,69.3,30.09,ESE,112,7.0,12.8,70,0.00,,,0.00,Rainwise IP-100,2013-04-03 17:47:00,
2013-04-03 13:53:00,79.9,69.3,30.09,SSE,157,4.0,11.2,70,0.00,,,0.00,Rainwise IP-100,2013-04-03 17:53:00,
2013-04-03 13:58:00,80.2,69.3,30.09,SSE,157,3.0,9.1,69,0.00,,,0.00,Rainwise IP-100,2013-04-03 17:58:00,
2013-04-03 14:03:00,80.2,69.3,30.08,ESE,112,1.6,9.1,69,0.00,,,0.00,Rainwise IP-100,2013-04-03 18:03:00,
2013-04-03 14:08:00,80.2,69.3,30.09,ESE,112,3.3,11.4,69,0.00,,,0.00,Rainwise IP-100,2013-04-03 18:08:00,
2013-04-03 14:13:00,80.1,69.0,30.08,South,180,2.6,9.3,69,0.00,,,0.00,Rainwise IP-100,2013-04-03 18:13:00,
2013-04-03 14:18:00,80.1,69.0,30.08,SSE,157,4.4,10.7,69,0.00,,,0.00,Rainwise IP-100,2013-04-03 18:18:00,
2013-04-03 14:23:00,79.7,69.0,30.08,SSE,157,5.4,13.1,70,0.00,,,0.00,Rainwise IP-100,2013-04-03 18:23:00,
2013-04-03 14:28:00,79.1,68.5,30.08,SSE,157,3.7,13.5,70,0.00,,,0.00,Rainwise IP-100,2013-04-03 18:28:00,
2013-04-03 14:34:00,79.0,69.0,30.08,SSE,157,7.0,12.6,71,0.00,,,0.00,Rainwise IP-100,2013-04-03 18:34:00,
2013-04-03 14:39:00,78.8,69.0,30.07,South,180,9.6,14.0,72,0.00,,,0.00,Rainwise IP-100,2013-04-03 18:39:00,
2013-04-03 14:44:00,78.6,69.0,30.08,ESE,112,7.7,15.2,72,0.00,,,0.00,Rainwise IP-100,2013-04-03 18:44:00,
2013-04-03 14:49:00,79.0,69.3,30.07,ESE,112,7.0,10.5,72,0.00,,,0.00,Rainwise IP-100,2013-04-03 18:49:00,
2013-04-03 14:54:00,79.1,69.3,30.07,ESE,112,5.6,14.5,72,0.00,,,0.00,Rainwise IP-100,2013-04-03 18:54:00,
2013-04-03 14:59:00,79.1,69.3,30.07,SE,135,7.7,8.2,72,0.00,,,0.00,Rainwise IP-100,2013-04-03 18:59:00,
2013-04-03 15:05:00,79.2,69.7,30.07,South,180,4.2,13.3,72,0.00,,,0.00,Rainwise IP-100,2013-04-03 19:05:00,
2013-04-03 15:10:00,79.0,69.3,30.06,ESE,112,8.4,12.1,72,0.00,,,0.00,Rainwise IP-100,2013-04-03 19:10:00,
2013-04-03 15:15:00,78.9,69.3,30.07,South,180,6.8,13.3,72,0.00,,,0.00,Rainwise IP-100,2013-04-03 19:15:00,
2013-04-03 15:20:00,78.6,69.0,30.07,SW,225,2.1,14.5,72,0.00,,,0.00,Rainwise IP-100,2013-04-03 19:20:00,
2013-04-03 15:25:00,78.8,69.3,30.07,SE,135,6.8,11.4,73,0.00,,,0.00,Rainwise IP-100,2013-04-03 19:25:00,
2013-04-03 15:30:00,79.4,69.7,30.06,South,180,6.5,11.4,72,0.00,,,0.00,Rainwise IP-100,2013-04-03 19:30:00,
2013-04-03 15:35:00,79.7,69.7,30.06,SE,135,8.2,10.0,72,0.00,,,0.00,Rainwise IP-100,2013-04-03 19:35:00,
2013-04-03 15:40:00,79.5,69.3,30.06,SSE,157,2.8,12.8,71,0.00,,,0.00,Rainwise IP-100,2013-04-03 19:40:00,
2013-04-03 15:45:00,79.1,69.3,30.06,ESE,112,6.5,11.7,72,0.00,,,0.00,Rainwise IP-100,2013-04-03 19:45:00,
2013-04-03 15:51:00,79.0,69.3,30.06,SSW,202,4.2,11.7,72,0.00,,,0.00,Rainwise IP-100,2013-04-03 19:51:00,
2013-04-03 15:56:00,79.2,69.7,30.06,SE,135,9.8,10.0,72,0.00,,,0.00,Rainwise IP-100,2013-04-03 19:56:00,
2013-04-03 16:01:00,79.6,69.7,30.06,ESE,112,12.1,12.1,72,0.00,,,0.00,Rainwise IP-100,2013-04-03 20:01:00,
2013-04-03 16:06:00,79.3,69.3,30.06,ESE,112,9.8,13.5,71,0.00,,,0.00,Rainwise IP-100,2013-04-03 20:06:00,
2013-04-03 16:11:00,79.0,69.0,30.06,SE,135,5.1,12.6,71,0.00,,,0.00,Rainwise IP-100,2013-04-03 20:11:00,
2013-04-03 16:16:00,79.1,69.3,30.06,SSE,157,4.9,13.1,72,0.00,,,0.00,Rainwise IP-100,2013-04-03 20:16:00,
2013-04-03 16:21:00,79.2,69.7,30.06,ESE,112,7.5,8.4,72,0.00,,,0.00,Rainwise IP-100,2013-04-03 20:21:00,
2013-04-03 16:26:00,79.0,69.3,30.06,ESE,112,3.7,12.4,72,0.00,,,0.00,Rainwise IP-100,2013-04-03 20:26:00,
2013-04-03 16:32:00,78.9,69.3,30.06,ESE,112,4.2,8.9,72,0.00,,,0.00,Rainwise IP-100,2013-04-03 20:32:00,
2013-04-03 16:37:00,78.9,69.3,30.06,ESE,112,9.3,11.4,72,0.00,,,0.00,Rainwise IP-100,2013-04-03 20:37:00,
2013-04-03 16:42:00,78.9,69.0,30.06,SSE,157,2.6,11.0,71,0.00,,,0.00,Rainwise IP-100,2013-04-03 20:42:00,
2013-04-03 16:47:00,79.0,69.0,30.06,SE,135,9.8,12.4,71,0.00,,,0.00,Rainwise IP-100,2013-04-03 20:47:00,
2013-04-03 16:52:00,78.6,69.0,30.06,SE,135,4.7,11.9,72,0.00,,,0.00,Rainwise IP-100,2013-04-03 20:52:00,
2013-04-03 16:57:00,78.2,69.3,30.06,ESE,112,4.4,10.5,73,0.00,,,0.00,Rainwise IP-100,2013-04-03 20:57:00,
2013-04-03 17:02:00,78.0,69.0,30.06,SSE,157,11.0,12.1,73,0.00,,,0.00,Rainwise IP-100,2013-04-03 21:02:00,
2013-04-03 17:07:00,77.9,69.0,30.06,ESE,112,2.3,11.0,73,0.00,,,0.00,Rainwise IP-100,2013-04-03 21:07:00,
2013-04-03 17:13:00,78.0,69.0,30.07,SSE,157,5.6,10.7,73,0.00,,,0.00,Rainwise IP-100,2013-04-03 21:13:00,
2013-04-03 17:18:00,78.1,69.0,30.06,SSE,157,4.2,8.4,73,0.00,,,0.00,Rainwise IP-100,2013-04-03 21:18:00,
2013-04-03 17:23:00,78.3,69.3,30.06,ESE,112,3.3,10.3,73,0.00,,,0.00,Rainwise IP-100,2013-04-03 21:23:00,
2013-04-03 17:28:00,78.2,69.3,30.05,ESE,112,9.1,11.9,73,0.00,,,0.00,Rainwise IP-100,2013-04-03 21:28:00,
2013-04-03 17:33:00,77.9,69.0,30.06,ESE,112,6.3,11.9,73,0.00,,,0.00,Rainwise IP-100,2013-04-03 21:33:00,
2013-04-03 17:38:00,77.5,68.5,30.06,ESE,112,8.2,12.4,73,0.00,,,0.00,Rainwise IP-100,2013-04-03 21:38:00,
2013-04-03 17:43:00,77.4,68.0,30.06,ESE,112,4.2,10.5,73,0.00,,,0.00,Rainwise IP-100,2013-04-03 21:43:00,
2013-04-03 17:49:00,77.6,68.5,30.06,ESE,112,6.5,12.1,73,0.00,,,0.00,Rainwise IP-100,2013-04-03 21:49:00,
2013-04-03 17:54:00,77.5,68.5,30.06,ESE,112,6.1,11.4,73,0.00,,,0.00,Rainwise IP-100,2013-04-03 21:54:00,
2013-04-03 17:59:00,77.2,68.5,30.06,ESE,112,4.7,10.0,74,0.00,,,0.00,Rainwise IP-100,2013-04-03 21:59:00,
2013-04-03 18:04:00,77.3,68.5,30.06,SSE,157,3.0,9.3,74,0.00,,,0.00,Rainwise IP-100,2013-04-03 22:04:00,
2013-04-03 18:09:00,77.6,69.0,30.07,South,180,4.2,9.3,74,0.00,,,0.00,Rainwise IP-100,2013-04-03 22:09:00,
2013-04-03 18:14:00,77.7,69.0,30.07,SSW,202,0.0,7.9,74,0.00,,,0.00,Rainwise IP-100,2013-04-03 22:14:00,
2013-04-03 18:19:00,77.9,69.0,30.07,SSE,157,4.4,8.2,73,0.00,,,0.00,Rainwise IP-100,2013-04-03 22:19:00,
2013-04-03 18:24:00,77.9,69.0,30.07,SSE,157,4.7,8.4,73,0.00,,,0.00,Rainwise IP-100,2013-04-03 22:24:00,
2013-04-03 18:30:00,77.5,69.0,30.08,ESE,112,7.7,8.9,74,0.00,,,0.00,Rainwise IP-100,2013-04-03 22:30:00,
2013-04-03 18:35:00,77.1,68.5,30.08,East,90,4.9,8.4,74,0.00,,,0.00,Rainwise IP-100,2013-04-03 22:35:00,
2013-04-03 18:40:00,77.0,69.0,30.07,ESE,112,3.5,7.9,75,0.00,,,0.00,Rainwise IP-100,2013-04-03 22:40:00,
2013-04-03 18:45:00,77.0,69.0,30.07,South,180,1.9,8.2,76,0.00,,,0.00,Rainwise IP-100,2013-04-03 22:45:00,
2013-04-03 18:50:00,76.8,69.0,30.07,ESE,112,4.4,9.6,76,0.00,,,0.00,Rainwise IP-100,2013-04-03 22:50:00,
2013-04-03 18:55:00,76.6,69.0,30.07,ESE,112,5.6,7.9,77,0.00,,,0.00,Rainwise IP-100,2013-04-03 22:55:00,
2013-04-03 19:00:00,76.3,68.5,30.07,South,180,6.1,9.8,77,0.00,,,0.00,Rainwise IP-100,2013-04-03 23:00:00,
2013-04-03 19:05:00,76.1,68.5,30.08,SSE,157,0.0,8.6,78,0.00,,,0.00,Rainwise IP-100,2013-04-03 23:05:00,
2013-04-03 19:10:00,76.1,68.5,30.07,ESE,112,4.9,7.0,78,0.00,,,0.00,Rainwise IP-100,2013-04-03 23:10:00,
2013-04-03 19:16:00,75.8,68.5,30.07,ESE,112,3.3,7.2,78,0.00,,,0.00,Rainwise IP-100,2013-04-03 23:16:00,
2013-04-03 19:21:00,75.7,68.0,30.06,ESE,112,5.6,8.4,78,0.00,,,0.00,Rainwise IP-100,2013-04-03 23:21:00,
2013-04-03 19:26:00,75.6,68.5,30.06,SE,135,7.5,8.9,79,0.00,,,0.00,Rainwise IP-100,2013-04-03 23:26:00,
2013-04-03 19:31:00,75.5,68.5,30.06,ESE,112,7.0,10.0,79,0.00,,,0.00,Rainwise IP-100,2013-04-03 23:31:00,
2013-04-03 19:36:00,75.5,68.5,30.08,ESE,112,0.0,9.1,79,0.00,,,0.00,Rainwise IP-100,2013-04-03 23:36:00,
2013-04-03 19:41:00,75.5,68.5,30.08,SSE,157,2.8,4.2,79,0.00,,,0.00,Rainwise IP-100,2013-04-03 23:41:00,
2013-04-03 19:46:00,75.5,69.0,30.07,SE,135,2.3,7.5,80,0.00,,,0.00,Rainwise IP-100,2013-04-03 23:46:00,
2013-04-03 19:52:00,75.3,69.3,30.08,SSE,157,2.6,7.0,81,0.00,,,0.00,Rainwise IP-100,2013-04-03 23:52:00,
2013-04-03 19:57:00,75.2,69.0,30.07,SE,135,5.6,7.9,81,0.00,,,0.00,Rainwise IP-100,2013-04-03 23:57:00,
2013-04-03 20:02:00,75.2,69.0,30.08,ESE,112,2.1,5.6,81,0.00,,,0.00,Rainwise IP-100,2013-04-04 00:02:00,
2013-04-03 20:07:00,75.1,69.3,30.08,SE,135,2.6,7.7,82,0.00,,,0.00,Rainwise IP-100,2013-04-04 00:07:00,
2013-04-03 20:12:00,75.1,69.3,30.08,SE,135,4.9,7.7,82,0.00,,,0.00,Rainwise IP-100,2013-04-04 00:12:00,
2013-04-03 20:17:00,75.0,69.3,30.08,ESE,112,2.8,5.6,82,0.00,,,0.00,Rainwise IP-100,2013-04-04 00:17:00,
2013-04-03 20:22:00,75.0,69.3,30.08,SE,135,2.8,5.4,82,0.00,,,0.00,Rainwise IP-100,2013-04-04 00:22:00,
2013-04-03 20:27:00,74.9,69.3,30.09,ESE,112,7.5,7.9,82,0.00,,,0.00,Rainwise IP-100,2013-04-04 00:27:00,
2013-04-03 20:32:00,75.0,69.3,30.08,SE,135,4.2,7.9,82,0.00,,,0.00,Rainwise IP-100,2013-04-04 00:32:00,
2013-04-03 20:37:00,75.1,69.3,30.09,ESE,112,5.4,7.2,82,0.00,,,0.00,Rainwise IP-100,2013-04-04 00:37:00,
2013-04-03 20:43:00,75.2,69.3,30.08,ESE,112,5.1,7.7,82,0.00,,,0.00,Rainwise IP-100,2013-04-04 00:43:00,
2013-04-03 20:48:00,75.2,69.3,30.09,SSE,157,2.6,8.2,82,0.00,,,0.00,Rainwise IP-100,2013-04-04 00:48:00,
2013-04-03 20:53:00,75.3,70.0,30.09,ESE,112,4.2,8.6,83,0.00,,,0.00,Rainwise IP-100,2013-04-04 00:53:00,
2013-04-03 20:58:00,75.3,70.0,30.09,ESE,112,1.6,10.0,83,0.00,,,0.00,Rainwise IP-100,2013-04-04 00:58:00,
2013-04-03 21:03:00,75.2,70.0,30.09,SSE,157,4.0,7.7,84,0.00,,,0.00,Rainwise IP-100,2013-04-04 01:03:00,
2013-04-03 21:08:00,75.2,70.0,30.10,SSE,157,1.6,8.6,84,0.00,,,0.00,Rainwise IP-100,2013-04-04 01:08:00,
2013-04-03 21:13:00,75.1,70.5,30.09,SE,135,2.6,10.5,85,0.00,,,0.00,Rainwise IP-100,2013-04-04 01:13:00,
2013-04-03 21:18:00,75.1,70.5,30.10,SE,135,7.0,12.1,85,0.00,,,0.00,Rainwise IP-100,2013-04-04 01:18:00,
2013-04-03 21:23:00,75.1,70.5,30.09,SE,135,5.1,12.8,85,0.00,,,0.00,Rainwise IP-100,2013-04-04 01:23:00,
2013-04-03 21:29:00,75.1,70.5,30.09,South,180,2.6,10.7,85,0.00,,,0.00,Rainwise IP-100,2013-04-04 01:29:00,
2013-04-03 21:34:00,75.2,70.5,30.09,SSE,157,2.6,10.3,85,0.00,,,0.00,Rainwise IP-100,2013-04-04 01:34:00,
2013-04-03 21:39:00,75.1,70.5,30.09,SSE,157,4.7,11.0,85,0.00,,,0.00,Rainwise IP-100,2013-04-04 01:39:00,
2013-04-03 21:44:00,75.1,70.5,30.10,ESE,112,3.7,12.8,85,0.00,,,0.00,Rainwise IP-100,2013-04-04 01:44:00,
2013-04-03 21:49:00,75.1,70.5,30.10,SSE,157,3.3,13.1,85,0.00,,,0.00,Rainwise IP-100,2013-04-04 01:49:00,
2013-04-03 21:54:00,75.1,70.0,30.10,SE,135,6.5,12.1,84,0.00,,,0.00,Rainwise IP-100,2013-04-04 01:54:00,
2013-04-03 22:00:00,75.1,70.0,30.10,East,90,4.4,11.0,84,0.00,,,0.00,Rainwise IP-100,2013-04-04 02:00:00,
2013-04-03 22:05:00,75.2,70.0,30.10,SSE,157,2.6,13.3,84,0.00,,,0.00,Rainwise IP-100,2013-04-04 02:05:00,
2013-04-03 22:10:00,75.1,70.5,30.10,SSE,157,4.7,12.1,85,0.00,,,0.00,Rainwise IP-100,2013-04-04 02:10:00,
2013-04-03 22:15:00,75.1,70.0,30.10,East,90,6.3,13.3,84,0.00,,,0.00,Rainwise IP-100,2013-04-04 02:15:00,
2013-04-03 22:20:00,75.2,70.0,30.10,SE,135,9.8,11.9,84,0.00,,,0.00,Rainwise IP-100,2013-04-04 02:20:00,
2013-04-03 22:25:00,75.2,70.0,30.10,SSE,157,6.8,12.6,84,0.00,,,0.00,Rainwise IP-100,2013-04-04 02:25:00,
2013-04-03 22:30:00,75.2,70.0,30.10,ESE,112,7.7,11.0,84,0.00,,,0.00,Rainwise IP-100,2013-04-04 02:30:00,
2013-04-03 22:35:00,75.1,70.0,30.10,SE,135,1.9,14.0,84,0.00,,,0.00,Rainwise IP-100,2013-04-04 02:35:00,
2013-04-03 22:41:00,75.1,70.0,30.10,ESE,112,9.3,12.6,84,0.00,,,0.00,Rainwise IP-100,2013-04-04 02:41:00,
2013-04-03 22:46:00,75.2,70.0,30.09,ESE,112,7.0,12.4,84,0.00,,,0.00,Rainwise IP-100,2013-04-04 02:46:00,
2013-04-03 22:51:00,75.2,70.0,30.09,SSW,202,3.7,15.2,84,0.00,,,0.00,Rainwise IP-100,2013-04-04 02:51:00,
2013-04-03 22:56:00,75.2,70.0,30.09,SE,135,2.8,11.4,84,0.00,,,0.00,Rainwise IP-100,2013-04-04 02:56:00,
2013-04-03 23:01:00,75.1,70.0,30.10,ESE,112,8.4,10.3,84,0.00,,,0.00,Rainwise IP-100,2013-04-04 03:01:00,
2013-04-03 23:06:00,75.1,70.5,30.09,SE,135,3.3,10.5,85,0.00,,,0.00,Rainwise IP-100,2013-04-04 03:06:00,
2013-04-03 23:12:00,75.1,70.0,30.10,ESE,112,2.8,15.6,84,0.00,,,0.00,Rainwise IP-100,2013-04-04 03:12:00,
2013-04-03 23:17:00,75.2,70.0,30.10,SSE,157,7.7,11.4,84,0.00,,,0.00,Rainwise IP-100,2013-04-04 03:17:00,
2013-04-03 23:22:00,75.2,69.7,30.10,SSE,157,6.1,12.6,83,0.00,,,0.00,Rainwise IP-100,2013-04-04 03:22:00,
2013-04-03 23:27:00,75.2,69.7,30.10,SSE,157,4.4,13.5,83,0.00,,,0.00,Rainwise IP-100,2013-04-04 03:27:00,
2013-04-03 23:32:00,75.3,69.7,30.10,ESE,112,5.4,13.8,82,0.00,,,0.00,Rainwise IP-100,2013-04-04 03:32:00,
2013-04-03 23:37:00,75.4,69.7,30.10,ESE,112,9.6,11.7,82,0.00,,,0.00,Rainwise IP-100,2013-04-04 03:37:00,
2013-04-03 23:42:00,75.5,69.7,30.11,SE,135,7.2,10.7,82,0.00,,,0.00,Rainwise IP-100,2013-04-04 03:42:00,
2013-04-03 23:47:00,75.5,69.7,30.11,SSE,157,7.0,11.7,82,0.00,,,0.00,Rainwise IP-100,2013-04-04 03:47:00,
2013-04-03 23:52:00,75.5,69.7,30.11,ESE,112,6.5,9.6,82,0.00,,,0.00,Rainwise IP-100,2013-04-04 03:52:00,
2013-04-03 23:58:00,75.5,69.7,30.10,SSE,157,2.6,8.2,82,0.00,,,0.00,Rainwise IP-100,2013-04-04 03:58:00,